Location: Brno
(49.2000°N, 16.6330°E)
Time: 00:34:50
(UTC+02:00)

Transit 4A - Pass Details

Date: 02 August 2021
Orbit: 870 x 974 km, 66.8° (Epoch: 26 September)

Event Time Altitude Azimuth Distance (km) Brightness Sun altitude
Rises 06:05:25 0° 317° (NW) 3,467 10.7 4.8°
Reaches altitude 10° 06:08:56 10° 339° (NNW) 2,530 10.2 5.4°
Maximum altitude 06:12:31 16° 17° (NNE) 2,114 10.4 5.9°
Drops below altitude 10° 06:16:08 10° 55° (NE) 2,545 12.1 6.5°
Sets 06:19:41 0° 76° (ENE) 3,498 13.4 7.0°
